Regional Weather Roundup
Issued by NWS Little Rock, AR

Home | Current Version | Previous Version | Graphics & Text | Print | Product List | Glossary On
Versions: 1 2 3 4 5 6 7 8 9 10 11 12 13 14 15 16 17 18 19 20 21 22 23 24 25 26 27 28 29 30 31 32 33 34 35 36 37 38 39 40 41 42 43 44 45 46 47 48 49 50
536
ASUS44 KLZK 260510
RWRLZK

WEATHER ROUNDUP FOR ARKANSAS
NATIONAL WEATHER SERVICE LITTLE ROCK AR
1100 PM CST WED NOV 25 2020

NOTE: "FAIR" INDICATES FEW OR NO CLOUDS BELOW 12,000 FEET WITH NO
SIGNIFICANT WEATHER AND/OR OBSTRUCTIONS TO VISIBILITY.

ARZ001-003-010-029-260600-
NORTHWEST ARKANSAS

CITY           SKY/WX    TMP DP  RH WIND       PRES   REMARKS
FAYETTEVILLE   FOG       32  32 100 S5        30.06F VSB 1/4 WCI  27
FORT SMITH     CLEAR     40  38  93 NE3       30.08R
HARRISON       CLEAR     39  35  86 CALM      30.05S
BENTONVILLE    CLEAR     35  35 100 S3        30.07S FOG
ROGERS         CLEAR     35  34  96 S6        30.06S WCI  30
SILOAM SPGS    CLEAR     33  33 100 E3        30.06S FOG
HIGHFILL       FOG       35  33  92 CALM      30.05S VSB 1/4
$$

ARZ004-005-016-260600-
NORTH CENTRAL ARKANSAS

CITY           SKY/WX    TMP DP  RH WIND       PRES   REMARKS
BATESVILLE     CLOUDY    47  41  80 W5        30.09R
FLIPPIN        CLOUDY    44  40  85 CALM      30.08S
MTN HOME       CLOUDY    44  38  79 VRB5      30.06R
$$

ARZ040-041-260600-
WEST CENTRAL ARKANSAS

CITY           SKY/WX    TMP DP  RH WIND       PRES   REMARKS
MENA           CLEAR     36  36 100 CALM      30.08S
MOUNT IDA      CLEAR     36  34  92 CALM      30.06R FOG
$$

ARZ009-017-025-026-028-260600-
NORTHEAST ARKANSAS

CITY           SKY/WX    TMP DP  RH WIND       PRES   REMARKS
JONESBORO      CLOUDY    50  42  74 W9        30.08R
NEWPORT        CLOUDY    47  42  83 W6        30.09R
WALNUT RIDGE   CLOUDY    48  41  76 W12       30.08R
BLYTHEVILLE    CLOUDY    52  44  74 W7        30.06R
$$

ARZ032-043-044-260600-
LITTLE ROCK METRO AREA

CITY           SKY/WX    TMP DP  RH WIND       PRES   REMARKS
LITTLE ROCK    CLEAR     43  39  86 CALM      30.10R
N LTL ROCK NWS   N/A     44  39  84 NW5       30.12S
NLR AIRPORT    FAIR      43  39  87 NW8       30.08S
BENTON         CLEAR     39  37  93 CALM      30.09S
JACKSONVILLE   CLEAR     38  36  94 CALM      30.09S
CONWAY         MOCLDY    41  41 100 CALM      30.09S
$$

ARZ022-023-033-042-260600-
REMAINDER OF CENTRAL ARKANSAS

CITY           SKY/WX    TMP DP  RH WIND       PRES   REMARKS
SEARCY         CLEAR     39  39 100 W3        30.10S
HOT SPRINGS    CLEAR     39  37  92 CALM      30.09R
RUSSELLVILLE   CLEAR     36  35  96 CALM      30.09R
CLINTON        FAIR      41  39  93 CALM      30.09R
$$

ARZ036-260600-
EAST ARKANSAS

CITY           SKY/WX    TMP DP  RH WIND       PRES   REMARKS
WEST MEMPHIS   CLEAR     46  41  82 VRB5      30.07R
$$

ARZ050-053-066-070-073-260600-
SOUTHWEST ARKANSAS

CITY           SKY/WX    TMP DP  RH WIND       PRES   REMARKS
ARKADELPHIA    FAIR      37 N/A N/A CALM      30.10S HAZE
TEXARKANA      CLEAR     45  41  86 CALM      30.08S
EL DORADO      CLEAR     41  39  93 CALM      30.10R
DE QUEEN       PTCLDY    39  39 100 CALM      30.07S FOG
$$

ARZ056-057-069-260600-
SOUTHEAST ARKANSAS

CITY           SKY/WX    TMP DP  RH WIND       PRES   REMARKS
PINE BLUFF     CLEAR     41  38  89 CALM      30.10R
STUTTGART      CLEAR     44  42  93 NW8       30.10R
MONTICELLO     CLEAR     44  42  93 CALM      30.10R

$$






USA.gov is the U.S. government's official web portal to all federal, state and local government web resources and services.